Weather History for Andalusia, AL

Change the Weather History Date:

Wednesday, April 23, 2014

  Actual Average (KCEW) Record (KCEW)
Temperature  
Mean Temperature 75 °F -  
Max Temperature 88 °F 82 °F 91 °F (1980)
Min Temperature 62 °F 54 °F 32 °F (1993)
Cooling Degree Days 10    
Growing Degree Days 25 (Base 50)    
Moisture  
Dew Point 60 °F    
Average Humidity 70    
Maximum Humidity 94    
Minimum Humidity 32    
Precipitation  
Precipitation 0.01 in - - ()
Sea Level Pressure  
Sea Level Pressure 29.91 in    
Wind  
Wind Speed 2 mph (North)    
Max Wind Speed 6 mph    
Max Gust Speed -    
Visibility 6 miles    
Events Fog , Rain    
Averages and records for this station are not official NWS values.
T = Trace of Precipitation, MM = Missing Value Source: NWS Daily Summary

Daily Weather History Graph

Daily Weather History Graph

Search for Another Location

Airport:

Trip Planner

Search our weather history database for the weather conditions in past years. The results will help you decide how hot, cold, wet, or windy it might be!

Date:

Astronomy

Apr. 23, 2014 Rise Set
Actual Time 6:08 AM CDT 7:19 PM CDT
Civil Twilight 5:43 AM CDT 7:44 PM CDT
Nautical Twilight 5:13 AM CDT 8:15 PM CDT
Astronomical Twilight 4:42 AM CDT 8:46 PM CDT
Moon 2:16 AM CDT (4/23) 1:49 PM CDT (4/23)
Length of Visible Light 14h 01m
Length of Day
13h 10m
Waning Crescent, 34% of the Moon is Illuminated
Apr 23
Waning Crescent
Apr 29
New
May 6
First Quarter
May 14
Full
May 21
Last Quarter

Hourly Weather History & Observations

Time (CDT) Temp. Heat Index Dew Point Humidity Pressure Visibility Wind Dir Wind Speed Gust Speed Precip Events Conditions
12:53 AM 66.2 °F - 60.8 °F 83% 29.90 in 7.0 mi Calm Calm - N/A   Mostly Cloudy
12:56 AM 66.0 °F - 61.0 °F 84% 29.89 in 6.0 mi Calm Calm - N/A   Haze
1:46 AM 66.2 °F - 60.8 °F 83% 29.89 in 4.0 mi Calm Calm - N/A   Haze
1:56 AM 66.0 °F - 60.1 °F 81% 29.88 in 5.0 mi Calm Calm - N/A   Haze
2:56 AM 64.0 °F - 59.0 °F 84% 29.88 in 5.0 mi Calm Calm - N/A   Haze
3:30 AM 64.4 °F - 59.0 °F 83% 29.89 in 4.0 mi Calm Calm - N/A   Haze
3:35 AM 62.6 °F - 59.0 °F 88% 29.89 in 2.5 mi NNW 3.5 mph - N/A   Mostly Cloudy
3:39 AM 62.6 °F - 59.0 °F 88% 29.89 in 1.0 mi NNW 3.5 mph - N/A   Mist
3:44 AM 62.6 °F - 60.8 °F 94% 29.90 in 0.2 mi NNW 3.5 mph - N/A Fog Fog
3:56 AM 64.0 °F - 60.1 °F 87% 29.89 in 0.2 mi NNW 3.5 mph - N/A Fog Fog
4:56 AM 64.0 °F - 60.1 °F 87% 29.90 in 0.2 mi Calm Calm - 0.00 in Fog , Rain Light Rain
5:56 AM 63.0 °F - 59.0 °F 87% 29.92 in 0.2 mi NNW 3.5 mph - 0.01 in Fog , Rain Light Rain
6:56 AM 63.0 °F - 60.1 °F 90% 29.95 in 0.2 mi NW 3.5 mph - 0.00 in Fog Fog
7:56 AM 64.9 °F - 61.0 °F 87% 29.96 in 0.5 mi Calm Calm - 0.00 in Fog Fog
8:16 AM 66.2 °F - 62.6 °F 88% 29.96 in 1.2 mi Calm Calm - N/A   Haze
8:19 AM 66.2 °F - 62.6 °F 88% 29.96 in 3.0 mi Calm Calm - N/A   Haze
8:31 AM 69.8 °F - 62.6 °F 78% 29.97 in 6.0 mi Calm Calm - N/A   Haze
8:56 AM 71.1 °F - 63.0 °F 75% 29.96 in 10.0 mi NNE 5.8 mph - N/A   Scattered Clouds
9:56 AM 75.9 °F - 63.0 °F 64% 29.96 in 10.0 mi NNE 4.6 mph - N/A   Clear
10:56 AM 80.1 °F 81.2 °F 62.1 °F 54% 29.96 in 10.0 mi NNE 4.6 mph - N/A   Clear
11:56 AM 84.0 °F 84.0 °F 60.1 °F 44% 29.95 in 9.0 mi Variable 5.8 mph - N/A   Partly Cloudy
12:56 PM 86.0 °F 85.4 °F 59.0 °F 40% 29.93 in 10.0 mi North 5.8 mph - N/A   Clear
1:56 PM 84.0 °F 83.3 °F 57.0 °F 40% 29.92 in 10.0 mi Variable 4.6 mph - N/A   Mostly Cloudy
2:56 PM 86.0 °F 84.9 °F 57.0 °F 37% 29.90 in 10.0 mi North 5.8 mph - N/A   Clear
3:56 PM 88.0 °F 86.1 °F 55.0 °F 32% 29.88 in 10.0 mi NE 4.6 mph - N/A   Scattered Clouds
4:56 PM 87.1 °F 85.3 °F 55.0 °F 33% 29.87 in 10.0 mi NW 3.5 mph - N/A   Scattered Clouds
5:56 PM 84.9 °F 83.6 °F 55.0 °F 36% 29.87 in 10.0 mi NNW 3.5 mph - N/A   Clear
6:56 PM 82.0 °F 81.7 °F 57.0 °F 42% 29.88 in 10.0 mi Calm Calm - N/A   Clear
7:56 PM 73.9 °F - 59.0 °F 59% 29.89 in 10.0 mi Calm Calm - N/A   Clear
8:56 PM 70.0 °F - 59.0 °F 68% 29.91 in 10.0 mi Calm Calm - N/A   Clear
9:56 PM 69.1 °F - 60.1 °F 73% 29.93 in 10.0 mi Variable 3.5 mph - N/A   Clear
10:56 PM 68.0 °F - 61.0 °F 78% 29.93 in 10.0 mi Calm Calm - N/A   Mostly Cloudy
11:56 PM 66.9 °F - 61.0 °F 81% 29.93 in 9.0 mi Calm Calm - N/A   Mostly Cloudy